Location: Unspecified
(0.0000°N, 0.0000°E)
Time: 02:16:59
(UTC+00:00)

deb Explorer IX - Pass Details

Date: 16 December 2018
Orbit: 538 x 1115 km, 38.8° (Epoch: 14 January)

Event Time Altitude Azimuth Distance (km) Brightness Sun altitude
Exits shadow 02:59:06 26° 156° (SSE) 1,743 ? -39.7°
Drops below altitude 10° 03:02:03 10° 145° (SE) 2,721 ? -39.1°
Sets 03:04:59 0° 140° (SE) 3,752 ? -38.4°
